Wind_Speed
21 21 21 21 20 20 21 21 20 20 19 19 19 19 20 21 23 25 26 27 27 27 26 27 28 28 29 29 30 31 31 31 30 30 32 32 33 34 34 34 33 36 41 36 29 31 32 29 28 28 29 32 34 36 36 35 35 36 35 36 38 40 43
21 21 21 21 21 21 22 22 22 22 22 21 21 21 21 21 22 23 23 24 25 25 24 26 27 27 27 27 29 30 30 30 30 29 31 31 32 33 33 33 33 35 38 37 32 30 31 30 30 31 30 30 33 37 39 39 38 37 37 37 38 40 42
20 20 21 21 21 21 22 22 22 23 23 23 23 23 23 23 23 23 23 23 23 23 22 25 27 27 27 26 28 30 30 30 30 29 31 32 31 33 34 33 33 34 36 37 34 31 31 30 28 31 32 30 30 33 37 40 41 39 39 39 39 41 42
19 19 19 20 20 20 21 21 22 22 22 22 23 24 24 24 24 24 24 24 23 22 22 25 27 27 26 24 26 29 30 29 29 29 30 32 32 32 33 33 33 33 35 36 34 33 33 30 28 29 31 30 29 30 34 39 41 41 42 41 41 41 42
19 19 18 19 19 19 20 20 20 20 20 20 21 22 23 23 24 24 24 24 24 24 25 25 26 27 25 24 26 29 29 29 30 30 30 32 33 33 34 34 33 34 35 35 36 36 35 31 29 30 30 29 29 29 30 34 38 40 42 42 41 41 42
19 18 18 18 18 19 19 19 19 19 19 19 19 20 21 21 22 22 22 22 22 22 23 23 24 24 23 22 24 26 28 28 29 29 30 32 33 33 34 35 35 35 35 36 38 39 38 35 32 32 31 30 30 30 30 32 34 37 39 41 41 41 42
18 18 18 17 17 18 18 18 18 17 17 18 18 18 18 18 18 19 19 19 19 19 20 20 21 21 21 21 22 24 26 27 27 29 30 32 32 33 34 35 36 36 36 37 38 39 40 40 38 36 35 34 33 32 32 33 33 33 35 39 42 43 43
18 18 17 17 17 16 16 16 15 15 16 16 16 15 14 14 15 16 17 17 17 17 17 17 18 18 18 18 19 21 22 23 24 25 27 29 30 32 33 34 36 36 37 38 39 41 42 43 43 41 38 37 36 36 37 37 35 33 34 36 39 42 43
17 17 17 16 16 15 15 14 14 13 14 14 13 12 12 12 13 15 16 17 16 16 16 16 16 16 16 16 17 19 20 20 21 21 22 24 25 27 30 32 34 36 37 38 39 42 43 43 43 43 39 37 36 36 38 37 35 36 37 36 35 39 42
16 16 16 15 14 14 13 13 12 12 12 12 10 9 10 12 14 14 16 17 18 17 17 19 20 21 22 22 23 23 23 23 23 23 23 24 24 24 25 27 30 33 35 38 39 42 43 43 44 44 41 39 37 35 34 34 33 35 36 35 35 37 40
15 15 14 13 12 12 12 11 11 11 11 12 11 9 10 14 15 15 16 18 18 19 20 22 24 25 25 24 24 25 25 25 25 25 24 25 25 25 25 25 27 29 31 35 38 40 41 42 44 45 42 40 39 36 35 35 35 35 34 34 36 38 39
15 14 13 12 11 10 10 9 9 10 11 11 11 8 10 15 17 16 17 19 20 21 23 24 24 24 23 22 22 22 23 23 25 25 25 26 27 27 28 28 28 28 28 30 34 38 40 40 42 43 42 40 39 38 35 34 36 37 37 36 37 39 40
14 13 12 11 10 10 9 8 8 9 9 9 8 6 10 15 17 16 18 20 22 23 23 23 23 22 21 21 21 22 22 22 23 23 24 25 26 28 29 29 30 30 30 30 32 34 37 39 40 41 42 41 38 37 35 34 36 38 39 39 40 41 41
13 13 12 10 10 9 8 8 8 8 8 8 7 7 9 13 16 18 19 20 19 19 18 18 20 20 20 21 22 21 22 22 22 22 23 23 24 25 27 28 29 30 32 33 34 35 36 37 38 39 42 41 38 36 36 37 38 39 40 42 43 43 41
13 13 11 10 10 9 8 8 7 7 8 9 9 10 13 15 16 18 18 18 17 15 13 14 16 17 18 20 20 19 20 20 20 21 22 23 24 25 26 26 25 24 26 28 31 34 37 38 38 38 39 40 40 40 40 40 40 40 41 42 42 43 42
13 13 11 10 10 9 8 8 7 7 9 9 9 12 15 16 14 15 16 16 15 13 12 14 16 17 18 18 18 17 17 16 17 19 21 23 24 25 25 25 22 20 21 22 24 27 31 34 37 37 37 38 39 41 42 42 42 41 41 41 41 42 43
13 12 11 10 10 9 8 8 8 8 8 9 9 11 14 15 13 13 14 13 11 11 13 15 16 18 19 19 17 15 13 13 15 18 20 21 22 22 22 21 22 23 24 24 24 24 25 27 29 31 34 36 36 37 37 38 42 45 44 43 42 42 44
12 11 11 11 10 9 9 8 9 9 9 10 10 11 13 14 13 13 13 11 8 10 13 14 15 19 21 21 19 15 12 12 14 17 22 23 22 22 21 22 25 29 28 26 27 28 28 29 28 29 33 37 38 38 36 34 38 42 45 45 44 44 45
10 10 10 11 10 10 9 9 9 10 10 11 10 10 13 14 13 12 11 9 8 10 11 13 16 20 22 22 21 18 14 12 13 16 22 25 24 24 24 25 29 32 31 29 30 30 30 32 32 32 33 35 38 40 39 37 36 37 40 45 47 45 44
10 10 10 11 10 10 11 11 11 11 11 11 11 10 12 13 11 9 8 8 10 12 14 17 20 23 24 24 22 19 17 16 15 16 21 25 26 25 24 27 31 33 32 31 32 32 32 32 33 32 31 31 33 36 38 39 39 37 38 41 44 46 45
10 10 10 11 12 12 12 12 12 12 11 11 10 9 9 10 9 9 10 12 14 16 18 21 24 26 26 24 22 20 19 19 19 20 23 26 26 25 25 30 34 35 34 33 34 34 33 33 32 31 29 26 26 28 31 33 36 38 38 38 41 44 47
10 10 10 11 11 13 14 13 12 12 12 11 9 6 8 9 11 13 14 15 16 18 20 22 24 25 24 23 22 22 22 23 24 24 26 26 27 28 30 33 34 35 34 34 34 34 34 33 33 33 32 28 25 23 24 26 29 33 36 37 36 37 42
9 10 11 11 10 10 13 14 14 14 13 12 9 4 5 7 13 16 16 17 18 20 21 22 23 24 24 24 25 25 25 26 27 27 26 26 28 30 30 31 31 32 32 32 31 31 31 30 26 25 25 25 25 24 23 21 22 25 30 35 35 33 35
8 8 9 10 10 11 12 15 15 14 12 11 9 4 4 9 16 18 17 18 20 21 22 23 24 25 25 25 25 26 26 26 26 26 26 27 28 28 27 27 28 28 28 28 28 27 26 23 19 16 16 17 20 25 27 26 23 21 21 25 29 30 29
8 9 8 10 12 13 14 16 16 13 10 9 9 8 7 12 17 19 19 20 22 22 22 23 23 23 23 23 23 23 23 24 24 24 25 26 26 26 25 25 25 24 24 24 22 21 22 23 22 22 22 23 23 26 28 28 28 26 24 23 25 28 28
10 10 9 10 13 15 16 16 15 12 9 9 10 11 12 15 20 21 22 22 22 22 21 20 20 20 20 20 20 20 21 21 21 22 23 23 23 22 22 22 21 22 21 20 19 19 21 24 25 26 27 27 27 27 27 25 24 24 25 26 26 28 30
10 10 10 12 14 16 16 15 13 10 8 10 12 14 16 19 23 23 23 23 22 20 20 19 18 18 18 18 18 18 18 18 19 19 20 20 19 19 19 19 19 19 18 18 19 21 21 22 22 23 24 24 24 25 25 23 20 19 20 22 23 24 28
10 10 12 14 16 17 16 14 12 8 8 11 14 17 18 21 25 24 22 22 21 20 19 18 17 16 17 16 16 16 16 17 17 17 18 18 18 18 18 18 18 17 18 18 19 19 19 19 20 21 21 21 20 20 21 20 21 22 19 16 18 21 24
9 12 15 16 16 17 16 13 10 8 7 9 13 16 16 20 24 23 21 20 19 18 17 16 16 16 16 16 16 16 16 17 17 17 18 18 18 18 18 19 19 18 19 18 17 17 18 18 19 20 19 19 20 20 20 20 21 23 23 19 16 18 21
10 15 17 16 15 16 15 12 9 7 6 7 12 15 15 17 21 21 19 17 16 16 15 15 15 15 15 16 17 17 17 18 18 18 19 19 19 19 19 20 20 20 20 18 17 17 18 18 18 18 18 19 20 21 21 22 21 21 23 23 19 17 17
12 15 17 16 14 14 14 12 9 8 8 10 14 16 14 16 18 18 15 14 13 13 14 14 14 15 15 16 17 17 18 19 19 20 20 20 20 20 19 19 21 21 20 18 17 18 18 18 17 18 19 19 21 21 22 22 21 21 21 23 23 20 17
12 13 15 15 13 13 13 12 10 9 10 13 15 14 13 13 14 13 12 12 12 12 13 13 13 14 15 16 17 18 18 19 20 20 21 21 21 21 20 20 21 21 19 16 17 19 19 17 17 18 19 20 19 20 21 22 21 21 21 21 22 21 18
12 11 11 11 11 12 13 12 11 10 10 11 12 12 11 11 10 10 10 11 12 11 12 13 13 14 15 15 16 17 18 19 20 20 20 21 21 21 21 20 20 19 16 15 17 19 18 17 18 19 20 19 19 18 19 20 20 19 20 20 20 20 19
10 8 8 8 10 11 11 11 10 9 8 8 9 10 10 10 9 9 10 10 11 11 12 12 13 14 15 16 17 17 18 19 19 20 20 20 20 20 21 20 20 17 15 15 18 19 17 17 19 19 19 19 19 18 19 19 18 17 18 19 20 20 19
7 6 7 8 9 9 9 8 7 7 6 6 6 8 9 9 9 9 9 10 10 11 12 13 14 15 16 17 17 18 18 19 19 20 20 20 20 21 20 20 19 17 15 17 18 18 17 17 18 19 18 18 18 18 18 18 18 17 17 18 18 19 20
6 6 7 7 7 7 6 6 5 5 5 6 7 7 8 7 8 8 9 10 11 12 13 14 15 15 16 17 17 18 19 19 19 20 20 20 21 21 20 19 18 16 16 18 19 17 16 16 17 18 18 18 18 18 17 17 17 17 17 17 17 18 20
Wind_Direction
277 276 274 273 271 270 267 265 263 261 261 261 261 262 262 261 261 261 260 259 258 255 253 254 256 255 255 254 253 254 254 252 251 249 247 246 247 248 248 247 246 249 257 258 251 251 252 246 246 256 264 266 266 265 266 266 264 264 261 258 255 254 251
279 277 275 274 272 270 268 267 266 263 261 260 259 258 259 259 261 262 262 262 260 258 255 255 256 257 256 256 255 256 256 255 253 251 250 248 247 249 249 247 246 248 254 258 255 252 254 251 246 250 257 263 263 264 266 267 265 264 262 261 259 257 255
283 281 278 276 273 271 269 268 266 265 263 262 261 260 260 259 259 260 260 260 260 259 258 258 259 259 258 259 260 260 259 257 255 253 251 250 248 250 251 248 247 248 252 257 258 254 254 253 250 250 253 256 257 261 266 267 266 264 263 262 261 259 258
288 286 283 281 278 275 273 271 269 267 265 264 263 262 262 261 261 260 260 259 259 260 260 259 260 261 260 259 260 261 261 259 257 255 254 252 251 250 251 250 248 248 251 256 258 257 256 254 252 251 252 252 252 256 261 266 267 266 265 263 262 261 259
291 289 286 283 281 279 278 277 275 273 271 268 265 264 263 263 262 262 262 262 262 263 264 264 264 265 263 260 260 263 264 264 262 262 260 258 256 254 252 252 251 250 251 253 255 258 259 257 254 253 253 251 250 252 255 260 263 264 264 264 263 261 258
293 291 287 284 282 280 279 278 277 278 277 275 272 269 268 267 266 266 265 266 267 267 267 266 265 265 264 262 262 263 265 267 269 270 268 266 265 262 258 256 255 254 253 253 255 259 260 260 257 256 254 251 250 252 254 254 257 260 260 260 261 262 260
293 291 288 285 283 281 279 279 278 278 277 276 276 276 275 275 274 272 270 267 266 266 266 266 265 263 262 260 259 261 264 266 269 270 270 269 269 267 264 261 260 258 256 256 257 260 262 263 263 260 258 255 253 253 252 250 251 255 256 255 257 261 261
293 291 289 287 286 283 281 280 278 276 274 273 274 275 278 282 282 279 275 271 268 266 265 265 264 263 263 263 262 263 263 264 266 268 269 269 268 267 265 264 263 261 260 260 260 262 265 266 266 264 261 260 258 252 249 248 246 249 253 255 257 259 261
293 291 290 289 287 286 286 282 278 275 271 268 269 271 276 281 283 282 280 276 272 267 263 261 259 259 259 258 257 256 256 257 258 260 263 266 267 268 268 266 264 263 263 263 262 263 265 265 264 262 259 258 256 251 251 251 247 246 250 253 256 259 261
293 292 291 290 289 287 286 283 280 275 268 264 262 263 271 274 273 274 276 274 272 268 265 263 264 265 265 263 263 262 261 262 262 259 258 258 259 262 264 266 266 265 264 262 261 261 263 262 261 261 260 259 256 253 255 253 247 247 250 249 250 254 258
294 293 292 293 292 289 285 281 278 272 265 264 257 255 277 283 276 274 273 271 271 272 270 271 273 275 277 277 275 273 272 272 271 269 266 262 258 256 256 258 262 265 266 264 261 261 262 261 261 262 262 261 260 257 257 252 247 249 248 243 243 248 252
294 293 294 296 293 290 287 282 278 269 264 268 263 264 296 296 286 283 280 275 274 274 275 279 283 284 286 287 285 284 283 280 277 275 272 270 267 263 259 256 255 258 262 264 263 263 261 259 261 263 263 262 261 260 258 253 249 248 245 242 242 245 249
294 293 294 296 292 289 286 282 278 269 265 269 266 275 306 301 288 282 280 278 279 281 282 284 285 287 291 293 292 291 290 287 284 282 278 275 272 269 266 262 258 256 255 257 261 264 264 263 262 262 264 263 262 261 258 253 252 249 245 243 243 245 251
295 295 295 295 293 290 289 284 279 272 268 267 263 270 290 292 285 282 282 284 287 289 288 287 288 292 295 294 292 292 291 290 290 288 285 280 276 271 269 267 264 261 258 256 256 258 262 265 264 264 266 266 264 262 259 256 255 252 248 247 249 251 257
296 296 297 298 295 293 294 292 288 283 276 271 272 275 274 273 279 287 291 294 299 300 297 295 296 297 295 292 293 294 293 293 293 290 287 282 278 274 272 270 270 271 270 267 264 261 261 261 262 263 266 266 265 262 261 260 259 257 255 254 254 256 258
296 297 298 299 299 299 301 302 300 295 287 281 287 290 284 282 289 295 297 303 309 310 306 304 301 298 296 297 301 301 298 297 298 297 295 291 287 284 281 279 278 277 274 270 267 268 267 264 264 263 263 264 265 264 264 263 259 257 255 252 251 253 255
295 298 300 302 305 308 313 316 310 304 297 291 294 299 297 299 305 305 305 314 317 307 304 306 304 304 305 307 309 308 308 314 318 314 306 297 293 292 290 287 281 272 265 262 261 262 264 265 267 265 260 258 259 261 263 261 256 254 252 249 247 249 253
295 299 301 305 312 317 323 326 319 313 308 301 302 307 306 307 310 308 314 323 311 295 301 304 301 304 307 310 311 309 311 322 325 315 304 296 290 288 287 282 276 270 266 264 263 262 260 260 262 263 259 256 254 254 256 256 254 253 251 247 246 248 251
297 301 303 308 317 323 325 326 320 312 308 306 308 310 309 310 312 314 321 320 296 288 298 297 294 298 302 306 307 303 301 307 308 303 302 298 289 283 281 280 278 275 273 271 268 267 267 265 266 267 265 261 257 255 255 255 256 256 253 249 248 249 249
298 301 305 311 318 323 323 321 316 310 307 309 309 307 312 319 320 317 313 295 278 281 289 290 292 298 302 304 305 302 299 298 296 297 298 293 286 284 286 284 280 277 277 277 274 272 271 272 274 275 275 274 270 266 262 260 259 258 255 251 249 250 250
300 304 311 315 317 320 320 317 313 311 311 313 310 316 334 333 311 294 289 279 275 281 286 290 297 302 305 307 306 305 303 298 293 290 288 287 287 287 285 281 279 280 282 282 280 279 277 277 278 279 279 280 280 278 276 271 266 262 260 255 251 251 251
301 304 310 314 313 316 318 317 317 318 320 320 316 336 6 340 297 282 283 281 282 288 293 298 305 307 309 311 310 309 306 301 296 293 290 290 290 285 282 281 282 285 287 285 285 285 283 282 281 280 278 276 275 276 280 280 275 270 266 263 259 255 252
305 307 313 315 309 311 314 317 325 329 328 327 323 347 24 330 290 284 292 294 297 303 308 312 314 312 313 313 311 309 306 302 300 299 296 294 290 287 288 289 288 287 287 286 286 286 285 286 288 286 283 280 275 269 266 268 270 269 269 269 267 262 256
301 302 309 307 300 305 314 320 331 338 336 332 326 327 346 311 292 294 306 311 312 318 321 319 317 315 314 313 310 307 304 302 301 300 298 295 293 294 294 293 291 291 290 289 288 288 286 284 283 281 278 274 268 262 257 256 256 257 261 268 270 267 262
294 296 301 294 292 307 321 327 336 344 344 336 324 314 314 308 303 309 319 322 324 326 324 319 317 315 314 313 311 309 308 307 307 307 305 304 304 304 301 298 297 297 295 295 294 291 285 278 274 270 264 258 257 259 259 260 261 258 256 260 267 269 267
296 301 302 291 294 312 325 330 338 346 350 344 327 315 312 311 312 319 326 328 329 328 324 322 322 321 321 321 321 320 318 317 316 313 311 311 311 310 308 306 305 304 303 303 298 292 288 286 284 281 276 270 267 265 264 265 270 273 270 267 268 269 267
298 304 298 290 300 317 324 328 334 341 356 358 336 320 316 313 315 324 330 330 332 331 330 332 332 330 332 332 330 329 327 324 323 321 319 319 319 318 316 313 312 310 307 303 298 296 297 297 295 292 290 287 282 276 270 267 269 277 282 279 274 271 268
299 299 293 296 309 318 319 324 328 332 3 4 332 314 314 314 316 327 335 334 335 337 337 339 340 340 342 340 338 339 337 335 335 334 332 332 330 328 325 322 319 315 310 306 306 305 304 302 300 298 296 294 291 284 278 272 264 263 269 276 276 272 268
297 289 291 302 312 311 311 318 320 320 359 359 317 304 312 315 317 330 339 336 336 340 341 344 346 348 348 347 347 349 348 346 347 345 343 342 340 339 336 332 330 328 324 322 320 316 313 310 307 306 304 300 294 287 280 274 267 262 262 265 272 274 269
278 284 293 303 306 301 304 314 314 309 338 332 298 299 312 311 313 328 338 336 337 343 346 350 351 350 352 353 354 354 353 352 351 349 347 347 345 344 342 338 337 337 335 334 331 325 323 322 320 317 312 306 301 296 288 281 275 270 268 268 271 278 279
268 281 293 300 298 294 300 312 313 301 295 290 292 306 317 312 315 329 337 337 343 348 351 354 354 353 355 356 355 356 355 352 352 350 348 346 344 343 341 338 337 339 340 341 337 331 330 330 327 323 318 314 311 307 302 294 284 276 273 272 272 274 279
281 282 288 293 295 293 299 310 315 303 292 292 301 316 324 318 322 332 336 341 351 354 353 355 355 355 357 357 355 356 354 351 350 348 345 343 341 340 339 334 333 337 342 340 333 332 335 334 328 324 323 322 321 318 313 308 298 287 281 279 278 275 275
291 283 280 285 290 294 302 312 316 312 309 310 314 322 327 326 330 339 344 349 355 355 353 356 357 357 358 357 356 355 353 351 349 347 344 343 339 336 335 332 332 336 339 331 327 331 336 332 328 329 329 327 326 324 319 316 312 304 295 289 287 284 278
290 279 277 284 290 296 303 310 313 316 321 321 319 323 330 335 342 348 351 353 354 355 357 360 360 359 359 357 356 354 352 351 349 347 345 343 340 337 335 333 332 335 331 322 322 329 334 330 328 331 333 330 327 326 324 322 321 318 309 301 297 294 286
282 275 283 291 295 298 301 305 310 318 328 333 334 334 336 340 345 349 353 355 357 0 2 3 2 1 359 356 355 354 353 352 350 349 347 344 341 340 338 335 334 332 324 318 321 327 330 328 328 330 332 330 328 327 326 325 324 322 319 313 307 302 295
273 280 290 294 295 297 300 304 312 324 338 347 346 341 339 342 348 353 356 359 2 4 4 3 3 1 358 356 355 353 352 352 351 350 349 347 345 342 340 338 337 332 323 319 323 326 326 325 328 330 330 330 329 327 326 324 323 321 320 317 312 308 302
Height
1434 1433 1432 1431 1431 1431 1430 1430 1430 1430 1429 1429 1429 1430 1430 1431 1431 1431 1431 1432 1432 1433 1433 1433 1433 1434 1435 1436 1437 1437 1438 1438 1439 1440 1441 1441 1442 1442 1443 1444 1445 1442 1439 1441 1444 1444 1444 1447 1447 1444 1441 1441 1442 1443 1444 1446 1447 1449 1450 1452 1452 1452 1454
1431 1430 1429 1428 1428 1428 1427 1427 1427 1426 1426 1426 1426 1426 1427 1428 1428 1428 1428 1428 1428 1429 1429 1429 1429 1430 1431 1432 1432 1432 1433 1434 1435 1436 1436 1437 1437 1437 1438 1439 1440 1439 1436 1436 1438 1440 1440 1441 1443 1441 1439 1438 1437 1437 1439 1440 1442 1443 1445 1446 1447 1448 1448
1428 1427 1426 1425 1425 1424 1424 1424 1423 1423 1423 1423 1423 1423 1424 1424 1424 1424 1424 1424 1424 1425 1425 1425 1425 1426 1427 1427 1427 1427 1428 1429 1430 1431 1432 1432 1433 1433 1433 1435 1436 1435 1433 1432 1433 1435 1435 1436 1438 1437 1437 1436 1434 1433 1434 1434 1436 1438 1439 1441 1442 1442 1443
1425 1424 1423 1422 1422 1421 1421 1420 1420 1420 1419 1420 1420 1420 1420 1420 1420 1421 1421 1420 1420 1421 1421 1421 1421 1422 1423 1423 1423 1423 1423 1424 1425 1426 1427 1427 1428 1429 1429 1430 1431 1431 1430 1429 1429 1429 1430 1431 1433 1433 1433 1433 1432 1431 1430 1429 1430 1432 1433 1435 1436 1436 1437
1422 1421 1420 1419 1418 1418 1417 1417 1416 1416 1416 1416 1416 1416 1416 1416 1417 1417 1417 1417 1417 1417 1417 1417 1417 1418 1419 1419 1419 1419 1419 1420 1421 1422 1422 1422 1423 1424 1424 1425 1426 1426 1426 1426 1425 1424 1425 1426 1427 1428 1428 1429 1429 1427 1427 1426 1425 1426 1427 1429 1430 1430 1431
1419 1418 1417 1416 1416 1415 1414 1413 1413 1413 1412 1412 1412 1412 1413 1413 1413 1413 1413 1413 1413 1413 1414 1414 1414 1415 1415 1416 1416 1415 1416 1416 1417 1417 1417 1418 1418 1419 1420 1420 1420 1421 1421 1421 1420 1419 1420 1421 1422 1423 1423 1424 1424 1424 1423 1423 1421 1420 1421 1423 1424 1424 1425
1416 1415 1414 1414 1413 1412 1411 1411 1411 1410 1410 1409 1409 1409 1410 1410 1410 1410 1410 1410 1410 1410 1410 1411 1411 1411 1412 1412 1412 1412 1412 1413 1413 1413 1413 1413 1414 1415 1415 1415 1415 1416 1416 1416 1415 1414 1414 1415 1416 1417 1417 1418 1420 1419 1419 1419 1418 1416 1416 1417 1417 1418 1420
1414 1413 1412 1411 1410 1410 1409 1409 1408 1408 1407 1407 1407 1407 1407 1407 1407 1407 1406 1407 1406 1407 1407 1407 1407 1407 1407 1408 1408 1408 1408 1409 1409 1409 1409 1410 1410 1410 1411 1411 1411 1411 1410 1411 1410 1410 1409 1410 1410 1411 1411 1412 1413 1413 1412 1413 1414 1413 1412 1412 1412 1412 1414
1411 1410 1409 1409 1408 1407 1406 1406 1406 1405 1405 1405 1405 1405 1404 1404 1404 1403 1403 1403 1403 1403 1403 1403 1403 1403 1404 1404 1403 1403 1404 1404 1405 1405 1405 1405 1406 1406 1406 1406 1406 1406 1405 1406 1405 1405 1405 1405 1405 1405 1405 1405 1406 1406 1405 1407 1409 1408 1408 1409 1408 1407 1408
1409 1408 1407 1406 1406 1405 1404 1403 1403 1403 1402 1402 1402 1402 1402 1401 1401 1401 1400 1400 1399 1400 1400 1400 1400 1400 1400 1400 1399 1400 1400 1400 1401 1401 1401 1401 1401 1402 1402 1402 1401 1401 1401 1401 1400 1399 1400 1400 1399 1399 1399 1399 1400 1401 1401 1403 1403 1402 1403 1406 1404 1401 1401
1406 1406 1405 1404 1404 1403 1402 1401 1401 1400 1400 1400 1400 1400 1399 1398 1397 1397 1397 1396 1396 1397 1397 1397 1396 1396 1396 1396 1396 1396 1396 1397 1397 1397 1397 1397 1397 1398 1397 1397 1397 1396 1396 1396 1395 1394 1395 1394 1393 1393 1394 1394 1395 1396 1397 1397 1398 1398 1398 1399 1399 1397 1396
1404 1404 1403 1402 1402 1401 1400 1399 1399 1398 1398 1398 1398 1398 1397 1395 1394 1394 1394 1393 1394 1394 1394 1393 1393 1393 1393 1393 1393 1393 1393 1393 1393 1393 1393 1392 1392 1392 1392 1393 1393 1392 1392 1392 1391 1390 1390 1389 1388 1388 1389 1390 1390 1391 1392 1393 1393 1393 1392 1392 1393 1392 1391
1402 1402 1401 1400 1400 1399 1398 1398 1397 1396 1396 1396 1396 1396 1395 1392 1391 1391 1391 1391 1392 1391 1391 1391 1390 1390 1390 1390 1390 1390 1389 1389 1388 1388 1388 1387 1387 1387 1387 1387 1387 1388 1388 1388 1387 1386 1384 1384 1385 1383 1383 1385 1386 1387 1388 1388 1387 1387 1387 1386 1386 1387 1388
1400 1400 1399 1399 1398 1397 1396 1396 1395 1394 1394 1393 1393 1393 1392 1390 1388 1389 1389 1389 1389 1389 1388 1388 1387 1387 1387 1387 1386 1386 1386 1385 1384 1383 1383 1382 1382 1381 1381 1381 1382 1382 1383 1383 1383 1381 1379 1379 1380 1379 1379 1380 1382 1383 1382 1382 1382 1382 1382 1381 1381 1382 1384
1398 1398 1397 1396 1396 1395 1394 1393 1393 1392 1392 1391 1391 1390 1388 1387 1387 1387 1387 1387 1387 1386 1386 1385 1385 1385 1385 1384 1384 1384 1383 1382 1381 1380 1379 1378 1377 1377 1377 1377 1377 1378 1378 1378 1377 1376 1375 1375 1375 1375 1375 1376 1377 1377 1377 1377 1377 1377 1378 1377 1377 1377 1378
1397 1396 1395 1394 1393 1393 1392 1391 1391 1390 1390 1389 1389 1387 1386 1385 1386 1385 1385 1385 1384 1384 1384 1384 1383 1383 1382 1381 1381 1381 1381 1380 1379 1378 1376 1375 1374 1373 1373 1373 1373 1374 1373 1373 1372 1371 1371 1370 1370 1371 1371 1371 1372 1371 1371 1372 1371 1372 1373 1372 1371 1370 1370
1395 1394 1393 1392 1392 1391 1390 1390 1389 1388 1388 1387 1387 1385 1384 1384 1384 1383 1383 1383 1383 1383 1383 1382 1381 1380 1379 1379 1379 1379 1379 1378 1378 1376 1374 1371 1370 1369 1369 1369 1368 1368 1367 1367 1367 1366 1366 1365 1365 1365 1365 1365 1365 1365 1366 1366 1364 1364 1365 1365 1364 1364 1363
1393 1392 1391 1391 1390 1389 1389 1388 1387 1387 1386 1385 1385 1384 1382 1382 1382 1382 1381 1382 1382 1382 1381 1380 1379 1378 1377 1376 1376 1376 1376 1376 1376 1374 1370 1368 1367 1366 1366 1365 1362 1360 1361 1362 1362 1361 1361 1360 1359 1359 1358 1359 1359 1359 1360 1359 1357 1357 1358 1358 1357 1357 1358
1392 1391 1390 1389 1389 1388 1387 1387 1386 1385 1385 1384 1384 1383 1381 1380 1380 1380 1380 1380 1380 1380 1379 1378 1377 1376 1375 1374 1374 1373 1373 1373 1372 1371 1367 1364 1364 1363 1362 1361 1357 1355 1356 1357 1356 1356 1356 1355 1354 1354 1353 1353 1353 1353 1354 1353 1353 1353 1352 1351 1350 1352 1353
1390 1389 1389 1388 1387 1387 1386 1385 1385 1384 1384 1383 1382 1381 1380 1379 1379 1379 1379 1378 1378 1378 1377 1375 1374 1373 1372 1372 1371 1371 1370 1369 1369 1368 1365 1362 1361 1360 1359 1356 1353 1352 1353 1353 1352 1351 1351 1350 1349 1349 1349 1348 1348 1348 1348 1348 1348 1348 1347 1346 1346 1346 1347
1389 1388 1387 1387 1386 1385 1385 1384 1383 1383 1382 1382 1381 1380 1380 1378 1377 1377 1377 1376 1375 1375 1374 1373 1371 1370 1369 1368 1368 1367 1366 1365 1365 1363 1361 1359 1358 1357 1355 1352 1349 1349 1349 1349 1347 1347 1346 1346 1346 1345 1345 1345 1344 1344 1343 1343 1343 1342 1342 1341 1341 1341 1341
1387 1387 1386 1386 1385 1384 1383 1383 1382 1381 1380 1380 1379 1379 1379 1377 1374 1374 1374 1373 1373 1372 1371 1370 1369 1367 1366 1365 1364 1363 1362 1361 1360 1358 1357 1356 1354 1352 1350 1348 1347 1346 1345 1344 1343 1343 1342 1342 1342 1341 1341 1341 1341 1341 1340 1339 1338 1337 1337 1336 1336 1337 1337
1386 1385 1385 1384 1384 1384 1382 1381 1380 1379 1378 1378 1377 1378 1378 1375 1372 1371 1372 1371 1370 1369 1368 1367 1365 1364 1362 1361 1360 1359 1358 1356 1355 1354 1352 1351 1349 1347 1346 1345 1344 1342 1341 1340 1339 1339 1338 1338 1338 1338 1338 1338 1337 1336 1335 1334 1333 1333 1332 1331 1331 1332 1332
1385 1384 1384 1383 1383 1382 1381 1379 1379 1377 1376 1375 1375 1375 1375 1372 1369 1370 1370 1369 1368 1366 1365 1364 1362 1360 1359 1358 1357 1355 1354 1352 1351 1349 1348 1346 1344 1343 1343 1341 1339 1338 1337 1336 1336 1335 1335 1334 1335 1334 1333 1333 1331 1330 1329 1329 1329 1328 1328 1327 1327 1327 1328
1383 1383 1383 1382 1381 1380 1379 1377 1377 1375 1374 1373 1373 1373 1372 1369 1368 1368 1367 1366 1365 1364 1362 1361 1359 1358 1356 1355 1354 1352 1350 1349 1347 1346 1344 1342 1341 1340 1339 1337 1336 1335 1334 1333 1332 1332 1330 1330 1329 1329 1328 1327 1326 1326 1326 1326 1326 1325 1324 1323 1323 1322 1322
1382 1381 1381 1380 1379 1378 1377 1376 1375 1374 1373 1372 1370 1370 1369 1367 1365 1365 1365 1364 1363 1361 1360 1358 1357 1355 1354 1352 1350 1349 1347 1346 1345 1343 1341 1340 1339 1337 1336 1335 1333 1332 1331 1330 1329 1328 1327 1326 1325 1325 1324 1323 1323 1323 1323 1323 1322 1321 1320 1320 1319 1318 1317
1380 1379 1379 1377 1376 1376 1375 1374 1373 1372 1371 1370 1368 1367 1366 1364 1363 1363 1362 1361 1360 1358 1357 1355 1354 1352 1351 1350 1348 1347 1346 1344 1343 1341 1340 1338 1337 1335 1334 1333 1332 1331 1330 1328 1327 1326 1325 1324 1322 1321 1320 1320 1320 1319 1319 1319 1319 1318 1317 1317 1316 1315 1313
1378 1377 1376 1375 1374 1374 1373 1372 1372 1371 1370 1369 1367 1365 1364 1362 1360 1361 1360 1358 1357 1356 1354 1353 1352 1351 1349 1348 1347 1346 1344 1343 1341 1340 1338 1337 1336 1334 1333 1332 1330 1329 1328 1327 1325 1324 1322 1321 1320 1318 1317 1317 1316 1315 1315 1315 1314 1313 1313 1313 1313 1312 1310
1377 1375 1374 1374 1373 1372 1371 1371 1370 1369 1370 1370 1367 1365 1363 1361 1358 1358 1358 1357 1355 1354 1353 1352 1350 1349 1348 1347 1345 1344 1343 1341 1340 1339 1337 1336 1335 1333 1332 1330 1329 1327 1326 1325 1324 1322 1320 1319 1318 1316 1315 1314 1313 1312 1311 1311 1310 1310 1309 1309 1309 1308 1307
1375 1374 1372 1373 1372 1370 1369 1370 1369 1369 1369 1369 1366 1364 1363 1361 1358 1357 1357 1356 1354 1353 1352 1351 1349 1348 1347 1346 1344 1343 1342 1340 1339 1338 1336 1335 1334 1332 1331 1329 1327 1326 1325 1323 1322 1321 1319 1318 1316 1315 1313 1312 1310 1309 1308 1308 1307 1307 1307 1306 1305 1304 1304
1374 1373 1371 1371 1370 1369 1368 1368 1368 1368 1367 1366 1364 1362 1362 1360 1358 1357 1356 1355 1354 1353 1351 1350 1349 1348 1346 1345 1344 1342 1341 1339 1338 1337 1335 1334 1332 1331 1330 1328 1327 1325 1324 1322 1321 1320 1318 1317 1315 1314 1312 1310 1309 1307 1305 1305 1305 1304 1303 1303 1302 1301 1301
1372 1372 1370 1369 1368 1367 1367 1366 1367 1366 1365 1363 1362 1361 1360 1359 1358 1357 1356 1354 1353 1352 1351 1350 1349 1347 1346 1345 1343 1342 1340 1339 1337 1336 1334 1333 1331 1330 1329 1327 1326 1324 1323 1322 1320 1319 1317 1316 1314 1313 1311 1309 1308 1306 1304 1303 1302 1301 1301 1300 1299 1298 1298
1370 1370 1369 1368 1367 1366 1365 1365 1364 1364 1363 1362 1361 1360 1359 1358 1357 1356 1355 1353 1352 1351 1350 1349 1348 1347 1345 1344 1343 1341 1340 1338 1337 1335 1334 1332 1331 1329 1328 1326 1325 1323 1323 1321 1320 1318 1317 1315 1313 1311 1310 1308 1307 1305 1303 1302 1300 1300 1299 1297 1296 1295 1295
1368 1368 1367 1367 1366 1365 1364 1364 1363 1362 1362 1361 1360 1359 1358 1357 1356 1355 1354 1353 1352 1351 1349 1348 1347 1346 1344 1343 1342 1341 1339 1338 1336 1334 1333 1331 1330 1328 1327 1325 1324 1323 1322 1320 1319 1317 1316 1314 1313 1311 1309 1307 1306 1304 1302 1301 1300 1299 1297 1296 1295 1293 1292
1367 1366 1366 1365 1365 1364 1363 1363 1362 1362 1361 1360 1359 1358 1357 1356 1355 1354 1353 1352 1351 1350 1348 1347 1346 1345 1344 1342 1341 1340 1338 1337 1335 1334 1332 1330 1328 1327 1325 1324 1322 1321 1320 1319 1317 1316 1315 1313 1312 1310 1308 1307 1305 1303 1302 1300 1299 1298 1296 1295 1294 1292 1291
1365 1365 1365 1364 1364 1363 1363 1362 1361 1361 1360 1359 1359 1358 1357 1356 1354 1353 1352 1351 1350 1349 1348 1346 1345 1344 1343 1342 1340 1339 1337 1336 1334 1333 1331 1329 1327 1326 1324 1322 1321 1320 1319 1317 1316 1315 1314 1312 1311 1309 1307 1306 1304 1302 1301 1300 1298 1297 1296 1294 1293 1291 1290